Flag for China Weather past 2 weeks in Lanchow, Gansu, China

Now
68 °F

Sunny.


Feels Like: 68 °F
Forecast: 60 / 88 °F
Wind: 1 mph from North

Location: Lanzhou / Zhongchuan

Current Time: Jul 26, 2014 at 9:24:57 AM

Latest Report: Jul 26, 2014 at 9:00 AM


Visibility: 10 mi

Pressure: 30.07 "Hg

Humidity: 56%

Dew point: 52 °F

Location of LanchowLocation

Historic Weather in Lanchow — Graph

°F

Lanchow temperature yesterday

Maximum temperature yesterday: 82 °F (at 3:00 PM)
Minimum temperature yesterday: 54 °F (at 6:00 AM)
Average temperature yesterday: 68 °F

Past Weeks' High & Low Weather Summary

 TemperatureHumidityPressure
High86 °F (Jul 17, 5:00 PM)100% (Jul 12, 6:00 AM)30.21 "Hg (Jul 12, 6:00 AM)
Low50 °F (Jul 13, 6:00 AM)24% (Jul 17, 5:00 PM)29.80 "Hg (Jul 17, 5:00 PM)
Average66 °F66%30.00 "Hg
* Reported Jul 11 8:00 AM — Jul 26 8:00 AM, Lanchow, Weather by CustomWeather, © 2014

Note: Actual official high and low records may vary slightly from our data, if they occured in-between our weather recording intervals... More about our weather records

Advertising

Lanchow weather history for previous 24 hours

 ConditionsComfort  
Time TempWeatherWind HumidityBarometerVisibility
8:00 AM
Jul 26
64 °FClear.No wind73%30.07 "Hg4 mi
7:00 AM57 °FClear.1 mph82%30.07 "Hg4 mi
6:00 AM54 °FClear.1 mph88%30.04 "Hg4 mi
5:00 AM54 °FClear.3 mph94%30.04 "Hg10 mi
4:00 AM55 °FClear.1 mph88%30.04 "Hg10 mi
3:00 AM55 °FClear.6 mph88%30.04 "Hg10 mi
2:00 AM57 °FClear.6 mph88%30.04 "Hg10 mi
1:00 AM61 °FClear.1 mph77%30.04 "Hg10 mi
12:00 AM63 °FClear.1 mph73%30.04 "Hg10 mi
11:00 PM
Jul 25
64 °FClear.6 mph64%30.04 "Hg10 mi
10:00 PM64 °FClear.8 mph68%30.01 "Hg10 mi
9:00 PM70 °FScattered clouds.6 mph50%30.01 "HgN/A
8:00 PM73 °FScattered clouds.10 mph47%30.01 "HgN/A
7:00 PM73 °FSprinkles. Scattered clouds.15 mph50%29.95 "HgN/A
6:00 PM73 °FScattered clouds.13 mph44%29.98 "HgN/A
5:00 PM82 °FPassing clouds.3 mph32%29.95 "HgN/A
4:00 PM82 °FPassing clouds.6 mph37%29.92 "HgN/A
3:00 PM82 °FPassing clouds.3 mph37%29.92 "HgN/A
2:00 PM81 °FSunny.3 mph34%29.95 "Hg10 mi
1:00 PM79 °FSunny.6 mph37%29.95 "Hg10 mi
12:00 PM77 °FPassing clouds.3 mph42%29.98 "HgN/A
11:00 AM73 °FPassing clouds.6 mph50%29.98 "HgN/A
10:00 AM70 °FPassing clouds.3 mph57%29.98 "HgN/A
9:00 AM66 °FPassing clouds.3 mph64%30.01 "HgN/A
Weather by CustomWeather, © 2014

See weather overviewHow to use our weather pages